Date,TemperatureHighF,TemperatureAvgF,TemperatureLowF,DewpointHighF,DewpointAvgF,DewpointLowF,HumidityHigh,HumidityAvg,HumidityLow,PressureMaxIn,PressureMinIn,WindSpeedMaxMPH,WindSpeedAvgMPH,GustSpeedMaxMPH,PrecipitationSumIn
2012-1-1,54.1,43.0,30.3,44.6,37.3,29.8,99,82,58,30.00,29.55,7,1,25,0.01
2012-1-2,47.4,38.3,27.3,44.9,29.0,18.0,98,72,38,29.65,29.46,6,1,16,0.00
2012-1-3,33.8,22.7,10.7,19.7,7.2,-5.7,79,52,35,29.96,29.64,5,2,18,0.00
2012-1-4,30.6,20.2,6.7,6.7,0.4,-3.7,66,43,25,30.06,29.84,2,1,15,0.00
2012-1-5,39.5,29.0,22.9,25.6,15.1,5.5,76,56,46,29.85,29.66,4,1,12,0.00
2012-1-6,44.8,32.3,23.3,29.6,22.3,12.6,83,67,52,29.87,29.66,2,0,10,0.00
2012-1-7,60.1,40.4,26.3,33.8,28.5,23.0,88,65,36,29.80,29.57,3,0,13,0.00
2012-1-8,46.2,37.0,24.4,28.1,23.1,13.5,81,58,41,30.21,29.80,4,1,12,0.00
2012-1-9,39.5,29.0,19.9,17.7,14.7,11.6,84,57,35,30.24,29.91,3,0,7,0.00
2012-1-10,49.5,36.2,26.3,28.5,24.6,18.2,90,64,41,29.91,29.67,5,1,13,0.00
2012-1-11,37.2,30.6,23.6,27.0,21.4,19.1,86,70,49,30.07,29.88,3,1,7,0.00
2012-1-12,35.3,33.1,31.2,34.4,31.7,27.3,98,95,81,30.00,29.45,9,4,19,0.01
2012-1-13,43.1,32.3,28.1,40.6,27.0,17.1,99,82,57,29.51,29.09,8,3,19,0.01
2012-1-14,37.0,27.6,14.6,20.6,15.0,2.5,70,59,43,29.95,29.50,7,2,19,0.00
2012-1-15,20.2,10.8,2.6,2.2,-4.1,-7.8,67,51,32,30.45,29.95,6,2,17,0.00
2012-1-16,31.8,20.9,4.1,28.3,4.3,-5.0,94,52,27,30.52,30.05,6,2,17,0.00
2012-1-17,45.5,37.1,29.8,43.0,34.5,28.3,98,91,68,30.05,29.37,6,1,12,0.01
2012-1-18,47.3,34.2,17.2,43.5,17.5,-0.7,97,53,31,30.08,29.32,9,4,24,0.00
2012-1-19,29.4,21.1,9.9,25.8,9.7,-0.4,90,62,38,30.24,29.90,8,1,14,0.00
2012-1-20,34.7,25.5,18.4,25.8,15.1,2.5,93,67,41,30.22,29.85,5,1,18,0.00
2012-1-21,19.4,16.9,12.3,15.1,9.6,0.8,84,74,49,30.31,30.08,2,0,12,0.00
2012-1-22,28.1,20.2,8.6,20.7,12.7,3.7,84,73,48,30.52,30.30,4,0,10,0.00
2012-1-23,35.9,30.4,24.8,32.2,26.5,20.3,97,85,77,30.46,29.81,0,0,3,0.00
2012-1-24,57.6,46.1,32.9,50.6,37.8,28.9,99,75,50,29.96,29.77,4,1,16,0.00
2012-1-25,49.5,36.5,31.8,28.9,25.5,24.1,77,65,39,30.14,29.96,6,1,18,0.00
2012-1-26,46.4,34.5,29.1,33.4,28.0,22.3,97,79,48,30.15,29.92,4,0,10,0.01
2012-1-27,41.6,37.0,31.9,41.3,36.2,31.1,99,97,82,29.92,29.19,6,1,17,0.00
2012-1-28,49.5,40.6,33.7,31.2,28.3,25.2,82,63,41,29.92,29.53,6,2,14,0.00
2012-1-29,45.2,37.3,30.6,28.6,16.6,11.5,75,45,26,30.00,29.79,6,2,14,0.00
2012-1-30,43.3,32.9,23.6,26.5,15.1,7.7,73,50,24,30.22,29.85,7,2,20,0.00
2012-1-31,44.3,32.7,23.8,31.0,24.1,16.1,96,72,48,30.22,29.95,1,0,5,0.00
2012-2-1,55.3,38.9,31.5,48.0,35.6,30.8,99,89,65,29.95,29.68,7,1,21,0.01
2012-2-2,40.1,34.4,30.1,31.0,27.5,19.7,83,76,61,30.13,29.88,7,1,12,0.00
2012-2-3,42.8,31.0,21.1,20.5,14.1,7.8,71,52,24,30.32,30.13,4,1,14,0.00
2012-2-4,47.4,33.3,24.2,26.8,16.3,7.9,82,52,30,30.18,30.04,5,1,16,0.00
2012-2-5,40.1,25.5,16.2,14.0,9.7,6.3,76,53,25,30.11,29.99,3,0,10,0.00
2012-2-6,53.9,37.9,21.4,24.2,19.3,12.9,74,50,27,30.01,29.75,5,1,14,0.00
2012-2-7,46.0,35.3,26.1,27.1,21.6,14.1,76,58,42,30.18,29.80,6,1,17,0.00
2012-2-8,41.1,29.3,15.1,16.4,8.8,3.0,68,43,23,30.25,29.99,5,1,11,0.00
2012-2-9,52.9,36.8,24.5,17.6,12.9,8.2,70,40,20,30.02,29.89,4,1,16,0.00
2012-2-10,53.2,38.7,23.2,28.4,18.3,12.2,73,47,22,30.03,29.80,7,1,16,0.00
2012-2-11,40.9,35.0,26.3,29.8,23.7,11.9,86,64,44,29.80,29.47,8,2,20,0.00
2012-2-12,32.7,21.2,12.8,12.0,-0.9,-5.5,55,39,23,29.82,29.49,9,4,20,0.00
2012-2-13,43.8,28.2,12.1,20.3,12.7,-1.9,72,53,31,29.89,29.72,8,2,21,0.00
2012-2-14,46.4,33.0,22.1,19.7,14.5,9.6,75,50,24,30.04,29.90,5,1,12,0.00
2012-2-15,46.1,37.9,30.4,33.4,28.5,18.0,89,70,55,30.17,30.02,2,0,5,0.00
2012-2-16,47.0,36.6,26.0,35.9,30.0,24.1,96,79,51,30.21,29.96,3,1,10,0.10
2012-2-17,56.5,41.6,29.5,42.8,30.7,20.0,98,70,32,29.96,29.77,5,1,14,0.01
2012-2-18,51.9,37.7,26.1,31.3,22.7,17.3,90,59,26,29.90,29.76,6,1,14,0.00
2012-2-19,51.0,35.1,24.8,27.2,19.5,14.5,89,57,27,30.00,29.89,4,1,12,0.00
2012-2-20,45.1,32.5,22.2,15.8,11.9,6.1,72,46,21,30.23,29.93,7,2,19,0.00
2012-2-21,45.7,34.5,18.9,33.1,19.0,13.8,86,57,29,30.27,29.78,6,2,19,0.00
2012-2-22,59.9,45.1,33.5,38.1,30.1,21.2,96,61,27,29.78,29.45,5,1,14,0.00
2012-2-23,52.8,43.1,34.3,44.6,32.9,22.2,92,69,41,29.71,29.29,7,1,18,0.02
2012-2-24,39.5,35.3,32.4,39.2,30.1,22.5,99,82,64,29.73,29.14,5,1,12,0.58
2012-2-25,45.4,37.0,30.0,36.0,23.6,15.2,98,61,33,29.72,29.12,12,5,29,0.00
2012-2-26,45.1,32.3,23.3,15.6,5.9,-0.5,55,35,16,30.37,29.72,7,3,24,0.00
2012-2-27,49.8,36.1,19.2,30.9,20.7,8.5,76,55,36,30.39,29.95,7,2,18,0.00
2012-2-28,52.6,41.2,29.1,31.0,19.6,11.9,72,43,26,30.33,29.95,7,3,20,0.00
2012-2-29,35.3,30.8,28.7,31.6,22.7,13.3,98,74,50,30.32,29.88,4,1,11,0.00
2012-3-1,32.9,27.8,21.6,32.7,26.8,19.1,99,96,90,29.97,29.71,7,3,14,0.01
2012-3-2,29.5,24.9,20.3,26.7,22.1,17.6,92,89,85,30.11,29.92,4,1,10,0.00
2012-3-3,41.3,35.3,28.8,40.4,34.5,26.8,99,97,89,29.93,29.29,3,0,7,0.55
2012-3-4,41.6,34.0,27.5,30.2,23.9,20.7,89,68,45,29.61,29.45,3,0,10,0.09
2012-3-5,38.9,29.7,21.0,20.7,13.9,7.2,76,52,34,30.25,29.57,7,2,17,0.01
2012-3-6,42.3,29.9,14.9,10.3,6.1,1.7,62,38,19,30.51,30.25,5,2,16,0.00
2012-3-7,60.5,45.3,25.7,34.6,26.1,8.7,83,50,29,30.50,30.15,7,2,18,0.00
2012-3-8,70.9,56.5,45.5,48.4,44.0,34.6,82,65,37,30.15,29.60,12,5,32,0.00
2012-3-9,60.4,42.7,32.8,50.7,25.0,13.3,83,53,26,30.07,29.58,9,2,25,0.02
2012-3-10,40.5,32.3,25.8,29.0,19.6,16.3,87,60,42,30.45,30.07,5,2,13,0.00
2012-3-11,60.9,43.0,26.1,26.9,21.9,17.6,84,49,22,30.44,30.17,6,2,16,0.00
2012-3-12,78.3,58.4,36.5,33.2,29.2,26.3,73,38,17,30.19,30.02,4,1,8,0.00
2012-3-13,75.6,60.5,49.4,54.1,46.1,31.1,94,61,37,30.02,29.77,6,1,13,0.02
2012-3-14,57.5,45.5,38.2,53.7,43.5,35.5,99,93,77,30.20,29.85,9,3,14,0.19
2012-3-15,47.4,38.2,34.9,36.3,33.1,30.1,93,82,58,30.32,30.19,5,2,11,0.01
2012-3-16,42.6,39.5,35.3,41.5,36.2,31.5,97,88,75,30.29,30.04,4,1,10,0.11
2012-3-17,50.8,43.1,38.0,45.1,40.1,37.5,99,90,69,30.31,30.09,3,0,5,0.01
2012-3-18,81.4,57.1,37.2,49.9,43.6,36.3,99,67,30,30.26,30.05,4,1,8,0.00
2012-3-19,80.1,59.4,45.4,51.6,45.9,42.1,96,66,31,30.21,30.04,11,2,18,0.00
2012-3-20,84.7,58.6,39.9,53.4,44.8,38.3,96,66,28,30.25,30.13,5,1,12,0.00
2012-3-21,84.9,68.7,52.9,57.9,54.1,51.3,98,64,33,30.26,30.14,6,1,16,0.00
2012-3-22,88.8,69.9,52.3,57.2,53.1,45.4,98,61,25,30.15,29.91,5,1,13,0.00
2012-3-23,80.3,67.8,57.6,53.4,38.7,20.7,75,39,17,30.06,29.91,7,2,17,0.00
2012-3-24,57.6,49.8,45.2,34.5,26.1,17.6,65,41,23,30.10,29.99,6,2,10,0.00
2012-3-25,45.8,44.0,41.8,41.2,37.9,34.1,93,79,65,29.99,29.66,4,1,8,0.04
2012-3-26,50.4,40.1,29.5,43.9,22.4,2.5,97,54,25,29.91,29.55,10,4,31,0.00
2012-3-27,50.7,37.3,23.9,9.7,-1.3,-6.6,40,21,10,30.11,29.91,8,3,20,0.00
2012-3-28,52.8,42.7,31.0,44.0,27.8,1.6,92,58,26,30.10,29.49,6,1,14,0.02
2012-3-29,46.5,43.0,38.0,43.6,33.3,26.1,93,70,49,29.84,29.46,6,2,21,0.01
2012-3-30,54.7,44.6,31.6,25.7,15.4,6.8,75,35,16,29.96,29.84,6,2,18,0.02
2012-3-31,45.2,39.4,30.9,31.6,28.2,17.7,88,65,39,29.98,29.82,7,2,12,0.00
2012-4-1,58.9,40.9,26.9,40.7,33.0,25.1,96,78,33,29.83,29.55,4,1,11,0.14
2012-4-2,56.6,43.9,35.8,39.8,26.9,10.5,96,61,19,29.74,29.51,8,3,21,0.04
2012-4-3,61.5,46.2,27.5,21.9,12.9,7.2,66,30,14,29.77,29.64,7,2,21,0.00
2012-4-4,69.6,51.5,37.0,38.5,23.7,14.0,76,39,14,29.67,29.39,8,2,19,0.00
2012-4-5,55.0,42.8,33.7,32.3,25.3,20.4,84,53,27,29.83,29.57,6,2,19,0.00
2012-4-6,56.5,42.9,29.4,24.3,19.8,15.1,74,43,22,29.91,29.81,6,2,14,0.00
2012-4-7,61.2,44.1,30.7,29.3,21.0,14.4,64,42,20,29.94,29.84,6,2,18,0.00
2012-4-8,55.3,45.4,38.6,30.1,25.7,19.9,70,48,26,29.92,29.52,7,1,17,0.00
2012-4-9,58.1,48.5,34.9,33.0,31.0,26.9,74,52,35,29.55,29.40,8,3,28,0.00
2012-4-10,64.7,51.3,39.5,32.0,27.6,23.7,63,43,23,29.68,29.51,6,1,14,0.00
2012-4-11,62.9,47.8,40.3,39.4,32.1,26.8,84,56,29,29.80,29.67,8,1,13,0.01
2012-4-12,61.2,44.9,39.1,45.0,39.0,36.0,95,81,40,30.01,29.79,7,1,17,0.21
2012-4-13,69.4,50.6,32.9,38.3,29.2,19.6,96,55,16,30.08,29.93,4,1,16,0.01
2012-4-14,76.8,58.9,38.8,30.5,26.1,19.4,64,33,13,30.07,29.89,4,1,13,0.00
2012-4-15,83.0,68.1,49.9,55.2,46.0,28.3,69,47,28,29.91,29.79,5,1,14,0.00
2012-4-16,96.3,77.5,59.3,59.4,53.2,44.1,93,49,19,29.92,29.78,6,2,17,0.00
2012-4-17,89.7,73.1,60.1,56.5,39.7,22.8,82,38,10,30.05,29.78,6,2,20,0.00
2012-4-18,66.8,54.8,46.5,38.2,30.7,22.1,72,42,24,30.19,30.05,6,2,14,0.00
2012-4-19,76.7,58.3,40.9,44.7,38.1,23.9,95,56,16,30.06,29.88,5,1,11,0.00
2012-4-20,82.8,63.4,46.0,47.8,43.2,37.0,82,53,20,29.92,29.81,8,2,19,0.00
2012-4-21,80.1,64.7,54.8,56.5,51.6,43.9,86,65,35,29.82,29.59,7,2,20,0.00
2012-4-22,59.8,49.8,41.5,57.2,47.6,40.4,96,92,82,29.77,29.58,10,3,21,0.85
2012-4-23,61.8,50.3,40.6,61.0,48.1,39.5,99,93,77,29.64,29.22,13,4,31,1.05
2012-4-24,59.2,50.8,44.9,42.4,34.4,26.7,86,56,29,29.62,29.31,8,3,21,0.00
2012-4-25,66.6,51.8,37.2,41.3,33.2,26.5,96,55,22,29.79,29.62,5,1,13,0.00
2012-4-26,68.6,52.1,36.5,49.2,35.7,27.2,89,58,24,29.88,29.47,7,1,13,0.00
2012-4-27,62.0,49.5,37.8,50.3,34.6,21.9,96,60,31,29.92,29.42,6,3,19,0.03
2012-4-28,62.9,47.3,33.2,27.8,19.7,10.6,62,37,14,30.05,29.93,5,2,17,0.00
2012-4-29,64.2,48.7,35.3,30.1,18.2,8.0,74,35,14,30.15,29.93,7,2,18,0.00
2012-4-30,65.2,50.1,31.2,34.1,23.3,-99.9,69,39,18,30.27,30.12,5,1,8,0.00
2012-5-1,51.0,45.1,42.6,45.0,41.7,31.0,97,89,49,30.14,30.00,6,2,13,0.60
2012-5-2,51.4,46.8,43.5,46.0,43.9,42.7,98,90,78,30.17,30.08,4,1,8,0.01
2012-5-3,51.1,47.8,44.8,49.0,46.5,43.3,98,95,90,30.15,30.05,2,0,5,0.04
2012-5-4,55.9,51.8,47.7,54.9,51.1,47.2,99,97,94,30.05,29.86,2,0,6,0.06
2012-5-5,64.3,55.2,49.4,54.8,51.1,47.8,99,87,68,30.02,29.87,6,1,9,0.11
2012-5-6,61.8,53.7,45.1,49.7,44.7,38.8,97,73,50,30.08,30.00,7,1,12,0.00
2012-5-7,73.3,56.4,43.8,48.4,42.2,34.2,96,63,30,30.08,30.01,6,1,12,0.00
2012-5-8,55.0,51.9,47.1,54.1,47.6,39.6,98,86,59,30.03,29.80,3,1,12,0.36
2012-5-9,64.3,59.6,54.8,60.7,58.3,54.2,99,95,86,29.80,29.52,1,0,6,0.56
2012-5-10,67.4,57.6,47.7,59.0,50.3,40.8,99,79,49,29.61,29.31,4,1,14,0.64
2012-5-11,66.9,55.2,42.6,41.4,36.7,28.4,86,55,27,29.98,29.61,5,1,18,0.00
2012-5-12,83.2,64.9,42.3,47.9,37.9,26.7,88,45,15,30.08,29.96,5,1,16,0.00
2012-5-13,86.5,68.6,49.9,52.9,47.6,40.4,91,53,21,30.08,29.96,4,1,12,0.00
2012-5-14,73.7,60.8,55.9,63.3,54.5,48.9,98,81,54,30.12,30.02,3,0,7,0.18
2012-5-15,73.9,63.0,57.6,60.9,57.5,52.0,99,84,48,30.09,29.90,5,1,16,0.34
2012-5-16,74.4,65.4,61.2,64.8,62.4,60.9,99,91,68,29.90,29.73,2,0,8,0.00
2012-5-17,73.2,62.0,48.5,62.7,42.8,32.2,94,55,25,30.08,29.79,3,1,13,0.00
2012-5-18,73.5,59.3,43.6,45.9,42.1,37.6,93,57,31,30.19,30.08,4,1,10,0.00
2012-5-19,80.7,63.4,44.6,51.3,44.9,40.9,92,56,26,30.13,30.05,4,1,8,0.00
2012-5-20,82.2,66.8,51.0,56.6,48.1,43.1,92,56,27,30.24,30.10,3,1,11,0.00
2012-5-21,68.6,59.6,49.2,61.0,54.8,45.6,99,85,69,30.24,30.02,3,1,7,0.01
2012-5-22,63.5,60.2,57.8,62.9,59.7,57.5,99,98,97,30.02,29.78,2,0,7,0.33
2012-5-23,77.9,68.2,60.5,65.2,61.9,59.7,99,82,59,29.99,29.78,1,0,5,0.01
2012-5-24,78.5,67.4,60.1,64.6,61.2,58.5,99,82,59,30.19,29.99,5,1,11,0.00
2012-5-25,75.4,65.9,59.6,67.0,62.2,58.5,97,88,71,30.21,30.04,2,0,11,0.00
2012-5-26,86.5,73.7,64.2,70.6,65.4,53.0,98,77,50,30.05,29.96,1,0,6,0.00
2012-5-27,81.2,68.4,58.9,56.3,53.7,50.9,83,61,37,30.12,29.95,3,0,10,0.00
2012-5-28,80.3,67.2,59.5,60.9,56.8,54.2,87,71,45,29.98,29.86,3,1,8,0.00
2012-5-29,75.4,64.9,60.4,67.0,61.8,56.1,98,90,73,29.90,29.65,4,0,11,0.10
2012-5-30,75.4,68.5,62.3,68.8,63.3,58.9,99,85,58,29.69,29.63,0,0,2,0.01
2012-5-31,84.7,72.8,61.0,61.3,54.0,45.8,92,56,28,29.85,29.65,2,1,12,0.00
2012-6-1,70.9,62.4,56.0,50.2,45.2,34.8,79,55,35,30.02,29.87,4,1,12,0.00
2012-6-2,61.6,57.1,52.6,61.3,54.7,46.3,99,92,70,29.96,29.63,6,2,12,0.88
2012-6-3,62.1,58.0,53.1,61.3,54.4,49.0,99,88,70,29.65,29.60,4,1,12,0.01
2012-6-4,53.1,50.5,48.3,50.5,48.4,46.9,97,93,86,29.76,29.57,5,1,16,0.22
2012-6-5,61.2,51.9,47.9,50.9,48.8,46.6,98,90,66,29.90,29.74,3,0,8,0.04
2012-6-6,66.9,56.0,47.7,54.3,50.7,47.2,99,84,58,29.94,29.88,2,0,8,0.01
2012-6-7,74.9,59.0,50.4,57.3,53.3,48.3,99,84,43,29.93,29.85,5,0,10,0.05
2012-6-8,80.9,62.4,50.5,66.1,57.4,49.7,99,86,41,29.89,29.69,5,0,12,0.19
2012-6-9,82.0,67.7,52.9,61.0,54.3,44.9,98,68,28,29.88,29.73,2,0,10,0.02
2012-6-10,88.2,67.1,53.8,56.9,51.2,44.0,96,63,25,30.16,29.88,3,0,7,0.00
2012-6-11,77.4,65.3,53.2,58.9,54.0,51.0,95,69,46,30.24,30.15,3,1,11,0.00
2012-6-12,77.2,65.9,57.8,61.2,56.6,49.7,94,73,55,30.15,29.91,3,1,14,0.02
2012-6-13,68.1,63.7,61.2,66.3,62.7,60.3,98,97,92,30.02,29.86,2,0,10,0.62
2012-6-14,77.6,65.6,56.9,63.4,55.6,45.1,98,73,36,30.22,30.02,4,1,11,0.00
2012-6-15,77.9,63.6,53.1,55.2,51.8,47.6,94,68,39,30.28,30.20,4,1,8,0.00
2012-6-16,68.3,58.6,50.4,56.1,52.2,49.0,97,80,62,30.32,30.24,5,1,11,0.00
2012-6-17,69.8,57.4,46.5,52.9,49.5,45.6,98,77,47,30.25,30.08,3,1,8,0.00
2012-6-18,73.7,58.0,49.6,55.8,51.7,47.7,97,82,47,30.12,30.06,2,0,7,0.00
2012-6-19,75.3,65.5,53.5,64.1,58.7,52.7,98,80,64,30.10,29.97,2,1,10,0.00
2012-6-20,97.8,81.8,63.2,75.8,69.7,61.9,98,70,42,29.96,29.80,2,0,7,0.00
2012-6-21,98.5,85.5,71.5,72.9,69.8,65.1,91,63,35,29.80,29.66,2,0,7,0.00
2012-6-22,98.5,81.1,70.1,71.8,68.1,63.8,89,68,34,29.71,29.62,2,0,8,0.01
2012-6-23,89.5,73.2,61.2,69.0,64.3,58.2,95,76,35,29.87,29.70,3,0,12,0.06
2012-6-24,88.2,73.1,56.7,59.9,55.7,48.1,97,60,26,29.90,29.80,2,0,10,0.00
2012-6-25,72.5,66.6,62.0,67.8,61.3,55.2,99,84,64,29.80,29.59,3,0,11,0.97
2012-6-26,75.6,63.9,57.3,59.6,56.2,52.5,92,77,54,29.60,29.49,3,1,18,0.00
2012-6-27,78.3,66.1,56.7,60.7,56.5,51.9,93,73,46,29.68,29.49,3,0,12,0.04
2012-6-28,88.0,74.1,58.4,60.7,56.3,50.4,91,58,28,29.69,29.63,3,0,14,0.00
2012-6-29,91.0,74.2,62.6,73.0,62.1,45.3,97,70,28,29.64,29.46,3,0,12,0.10
2012-6-30,93.4,77.5,62.6,63.2,58.0,52.7,83,55,26,29.66,29.56,3,1,11,0.00
2012-7-1,94.7,80.2,65.0,67.4,62.1,55.4,90,58,28,29.77,29.66,3,1,12,0.00
2012-7-2,88.4,75.2,65.2,67.0,60.8,56.4,87,64,35,29.82,29.76,3,0,10,0.00
2012-7-3,88.4,74.4,61.0,60.9,56.6,47.5,89,58,26,29.86,29.78,3,0,12,0.00
2012-7-4,90.1,76.2,64.8,73.5,67.6,59.2,99,77,48,29.78,29.61,2,0,7,0.37
2012-7-5,86.7,76.6,67.9,68.8,63.9,61.1,92,67,43,29.80,29.60,3,1,12,0.00
2012-7-6,90.1,76.3,61.8,68.6,64.1,60.1,95,69,42,29.86,29.75,1,0,7,0.00
2012-7-7,83.0,75.8,68.1,73.7,67.7,63.4,86,76,63,29.75,29.66,1,0,7,0.00
2012-7-8,89.9,75.9,63.4,66.0,61.0,51.0,97,64,34,29.82,29.71,3,0,10,0.00
2012-7-9,86.5,73.3,58.4,56.2,51.4,42.6,82,50,23,29.92,29.82,3,1,11,0.00
2012-7-10,86.5,70.8,54.1,56.9,51.4,44.1,88,56,24,30.02,29.92,2,0,7,0.00
2012-7-11,90.7,72.3,57.5,62.5,57.0,48.4,94,63,27,30.13,30.02,2,0,8,0.00
2012-7-12,93.2,76.8,60.4,64.1,60.9,55.7,96,62,30,30.13,30.02,2,0,8,0.00
2012-7-13,92.7,76.8,63.2,71.2,64.4,59.1,89,67,43,30.12,30.05,3,0,10,0.00
2012-7-14,94.5,79.3,68.8,70.3,65.6,58.3,90,65,30,30.08,29.99,1,0,8,0.00
2012-7-15,93.4,79.0,66.6,73.3,67.2,62.0,94,70,36,30.03,29.81,2,0,8,0.01
2012-7-16,94.7,79.2,68.8,72.6,69.0,65.7,97,75,39,29.81,29.67,3,0,11,0.00
2012-7-17,95.6,83.3,68.6,69.6,67.5,64.3,93,62,38,29.72,29.58,4,1,14,0.00
2012-7-18,92.3,79.9,73.0,76.9,70.4,59.7,92,74,51,29.83,29.61,6,0,17,0.02
2012-7-19,86.3,74.7,66.6,60.6,55.9,51.5,74,54,31,29.96,29.83,2,0,7,0.00
2012-7-20,73.5,67.4,58.6,62.0,57.3,52.5,90,71,55,30.04,29.97,2,0,7,0.00
2012-7-21,82.6,67.4,53.1,60.3,52.8,47.3,98,64,35,30.05,30.01,3,0,10,0.00
2012-7-22,88.2,73.4,57.5,62.9,57.9,52.7,93,63,34,30.07,30.00,3,1,12,0.00
2012-7-23,85.3,74.8,64.2,70.8,65.8,58.9,96,75,54,30.02,29.70,4,1,13,0.03
2012-7-24,92.7,76.9,67.4,72.8,66.7,52.9,97,73,45,29.70,29.45,4,1,16,0.16
2012-7-25,84.9,72.4,59.3,55.7,52.6,47.2,81,53,28,29.76,29.64,3,1,16,0.00
2012-7-26,84.7,73.3,64.3,71.8,63.2,53.7,94,71,55,29.72,29.52,3,0,11,0.01
2012-7-27,74.4,69.9,67.3,71.5,67.3,65.0,96,92,78,29.85,29.54,1,0,6,0.04
2012-7-28,84.0,70.8,64.2,71.4,66.4,63.6,99,88,54,29.92,29.85,3,0,6,0.36
2012-7-29,76.7,67.1,61.0,66.3,63.3,58.6,99,89,63,30.02,29.88,4,0,8,0.00
2012-7-30,85.9,70.4,56.6,64.9,60.8,56.0,98,75,45,30.07,30.00,2,0,14,0.00
2012-7-31,81.1,69.7,59.9,66.4,62.6,58.8,98,80,51,30.06,29.85,4,1,11,0.02
2012-8-1,83.4,71.7,65.8,73.1,68.0,64.9,98,89,60,29.86,29.78,2,0,7,0.25
2012-8-2,91.4,77.9,67.3,76.7,68.8,65.5,98,76,47,29.82,29.75,1,0,5,0.03
2012-8-3,96.6,80.7,68.4,72.2,68.2,63.6,98,70,35,30.01,29.83,2,0,10,0.00
2012-8-4,93.2,77.7,67.4,76.7,70.4,66.8,98,81,48,30.18,30.02,4,1,11,0.57
2012-8-5,91.0,76.0,66.8,76.3,71.3,66.2,99,88,52,30.16,29.86,4,1,16,0.28
2012-8-6,88.6,76.0,63.4,73.6,64.8,57.4,98,72,38,29.92,29.85,2,0,8,0.00
2012-8-7,87.2,72.0,58.7,65.2,60.3,55.1,98,71,35,29.96,29.88,2,0,10,0.00
2012-8-8,93.2,76.2,61.3,68.6,63.3,55.4,98,69,29,29.93,29.87,2,0,8,0.00
2012-8-9,91.4,77.8,65.6,71.8,68.0,63.4,98,75,41,29.90,29.81,2,0,12,0.00
2012-8-10,85.7,74.3,69.8,74.9,71.0,68.7,99,90,60,29.87,29.73,3,0,10,1.05
2012-8-11,86.1,72.2,65.3,76.5,69.9,64.7,99,93,63,29.86,29.75,2,0,5,0.50
2012-8-12,85.5,74.6,69.6,75.9,71.1,68.4,99,90,62,29.87,29.78,2,0,11,0.10
2012-8-13,88.8,75.5,63.7,68.4,65.0,61.8,98,73,42,29.89,29.83,2,0,7,0.00
2012-8-14,87.8,73.1,62.3,67.5,64.1,61.1,97,76,43,29.90,29.84,1,0,7,0.00
2012-8-15,87.0,74.1,66.6,69.8,67.1,63.4,99,81,46,29.86,29.77,3,0,16,0.49
2012-8-16,86.3,73.0,64.5,71.4,65.0,60.0,99,79,45,29.81,29.73,2,0,10,0.47
2012-8-17,88.6,73.9,60.4,70.6,64.3,59.1,98,75,46,29.79,29.69,3,0,14,0.38
2012-8-18,80.5,68.5,61.5,68.0,63.8,60.1,98,86,53,29.84,29.75,1,0,7,0.04
2012-8-19,78.5,66.4,56.2,61.2,56.5,51.5,95,72,45,29.91,29.84,2,0,6,0.00
2012-8-20,83.6,69.6,56.5,61.9,58.6,55.4,98,72,39,29.87,29.78,1,0,6,0.00
2012-8-21,87.4,72.8,62.1,63.4,59.2,53.1,95,67,33,30.02,29.83,1,0,6,0.00
2012-8-22,87.6,70.7,55.9,60.5,56.4,51.4,96,66,31,30.09,30.02,2,0,7,0.00
2012-8-23,88.4,73.3,59.8,66.2,62.1,58.5,97,71,40,30.08,30.01,1,0,6,0.00
2012-8-24,87.0,71.4,61.6,66.4,63.1,60.4,97,78,45,30.16,30.05,2,0,6,0.00
2012-8-25,81.8,70.8,62.6,67.4,62.5,54.9,97,78,49,30.28,30.16,2,0,7,0.00
2012-8-26,84.9,71.4,58.0,64.7,60.3,56.3,98,71,45,30.29,30.17,2,0,7,0.00
2012-8-27,87.2,73.5,58.0,68.9,63.4,56.9,98,73,45,30.17,29.86,3,1,17,0.00
2012-8-28,86.5,75.1,65.5,71.4,66.8,58.8,98,77,52,29.86,29.65,2,0,10,0.22
2012-8-29,79.0,65.8,53.6,58.5,51.5,42.5,90,64,29,29.92,29.83,2,0,10,0.00
2012-8-30,83.8,68.2,52.6,58.8,53.7,50.2,93,64,33,29.98,29.88,3,1,10,0.00
2012-8-31,91.0,74.2,59.2,61.4,56.8,52.6,87,58,28,29.90,29.73,2,0,9,0.00
2012-9-1,79.2,70.4,59.9,65.2,59.9,53.9,88,70,52,30.07,29.77,3,1,7,0.00
2012-9-2,81.6,64.9,57.6,61.3,57.0,52.4,96,78,40,30.10,29.99,4,0,8,0.00
2012-9-3,79.8,66.9,58.0,61.6,58.7,53.9,98,78,41,30.18,30.09,2,0,8,0.00
2012-9-4,71.8,66.1,61.3,71.2,63.9,55.1,98,93,73,30.10,29.81,1,0,6,0.95
2012-9-5,84.5,74.4,67.8,73.6,69.6,64.4,98,86,58,29.81,29.63,2,1,11,0.32
2012-9-6,82.0,71.2,63.9,68.0,63.5,-99.9,97,81,58,29.85,29.78,1,0,6,0.00
2012-9-7,89.5,73.0,63.4,70.9,64.0,-99.9,99,80,40,29.88,29.79,1,0,6,0.00
2012-9-8,82.4,73.8,62.7,71.5,68.2,61.2,98,84,59,29.83,29.55,6,2,18,0.01
2012-9-9,75.4,63.5,55.4,61.5,56.2,-99.9,98,81,48,29.80,29.65,1,0,4,0.01
2012-9-10,70.9,60.4,50.1,54.6,48.8,42.6,96,67,46,30.00,29.79,3,1,18,0.00
2012-9-11,76.7,59.6,45.2,52.2,45.7,40.5,89,65,29,30.21,30.00,2,0,8,0.00
2012-9-12,79.6,63.0,45.8,57.5,51.0,44.4,97,70,30,30.30,30.21,2,0,8,0.00
2012-9-13,84.7,67.6,54.7,62.4,57.8,53.7,98,74,40,30.30,30.19,2,0,7,0.00
2012-9-14,84.3,69.7,57.0,64.8,60.4,56.1,99,76,41,30.20,30.01,2,0,11,0.00
2012-9-15,77.0,63.6,51.0,61.2,53.7,45.6,98,74,37,30.01,29.93,3,0,13,0.02
2012-9-16,74.4,59.6,45.5,50.4,44.9,39.5,96,63,31,30.03,29.93,2,0,12,0.00
2012-9-17,78.5,60.1,42.1,56.1,48.8,40.8,98,71,33,30.05,29.96,1,0,6,0.00
2012-9-18,73.5,65.1,53.5,68.4,61.0,52.4,98,87,75,29.99,29.61,8,2,28,0.02
2012-9-19,74.7,64.4,49.8,68.9,53.0,40.4,98,71,33,30.15,29.60,5,0,13,0.34
2012-9-20,67.8,54.0,43.1,49.3,44.9,40.7,93,73,46,30.23,30.11,2,0,6,0.00
2012-9-21,65.0,52.5,43.9,53.7,48.2,42.8,98,86,62,30.13,30.00,1,0,5,0.00
2012-9-22,73.0,61.7,52.6,62.0,56.7,51.5,98,85,62,30.00,29.76,2,0,8,0.01
2012-9-23,73.9,62.5,46.8,62.0,51.1,39.1,98,71,31,30.04,29.73,2,0,11,0.07
2012-9-24,70.6,53.6,40.5,46.5,42.1,37.6,96,70,31,30.08,30.00,1,0,8,0.00
2012-9-25,73.2,56.7,39.9,51.3,44.8,38.6,97,69,38,30.11,30.03,4,0,13,0.00
2012-9-26,71.1,63.2,56.3,61.8,57.9,51.3,96,83,70,30.07,29.93,2,0,12,0.01
2012-9-27,73.9,61.4,48.0,59.7,50.2,41.7,98,72,35,30.20,29.93,2,0,12,0.00
2012-9-28,54.5,51.1,46.8,54.2,49.9,44.8,99,96,88,30.20,29.94,2,0,6,0.73
2012-9-29,56.9,53.9,50.5,54.1,52.7,50.2,99,96,87,29.94,29.83,2,0,7,0.05
2012-9-30,59.3,54.6,50.1,56.3,53.3,49.4,98,95,86,29.86,29.65,1,0,3,0.07
2012-10-1,66.8,56.9,47.9,54.9,51.4,47.4,98,83,62,29.88,29.63,4,1,14,0.01
2012-10-2,71.8,60.3,53.2,61.7,56.4,51.3,98,88,56,30.00,29.87,1,0,5,0.09
2012-10-3,63.4,60.7,59.3,62.8,60.3,59.0,99,99,98,30.11,29.98,1,0,3,0.06
2012-10-4,61.3,59.6,58.3,60.7,59.2,58.0,99,99,98,30.12,29.98,1,0,2,0.04
2012-10-5,80.9,64.9,55.7,65.5,58.7,55.4,99,83,45,29.98,29.85,1,0,7,0.00
2012-10-6,78.3,62.1,48.9,61.5,55.8,44.3,99,81,51,29.86,29.62,4,1,19,0.01
2012-10-7,62.9,51.0,41.2,47.9,43.4,38.7,96,77,45,30.01,29.87,1,0,6,0.17
2012-10-8,58.4,48.5,38.9,50.2,43.5,38.1,99,84,55,30.27,30.00,1,0,5,0.02
2012-10-9,55.9,50.3,45.2,49.3,46.5,43.9,96,87,71,30.26,30.09,3,0,7,0.00
2012-10-10,59.3,53.5,48.6,59.0,52.4,44.5,99,96,83,30.09,29.66,2,0,6,0.17
2012-10-11,61.8,49.6,40.1,51.2,38.5,33.0,98,69,36,30.07,29.74,4,1,12,0.00
2012-10-12,53.9,42.8,33.7,43.9,34.1,24.0,92,73,41,30.32,29.94,4,0,16,0.03
2012-10-13,56.9,41.7,28.5,33.6,27.1,20.3,86,60,25,30.41,30.25,2,0,8,0.00
2012-10-14,62.3,50.3,41.9,56.0,46.4,32.7,98,87,67,30.27,29.86,2,0,10,0.40
2012-10-15,75.8,64.4,56.9,61.5,58.7,53.7,97,83,59,29.86,29.54,5,1,19,0.15
2012-10-16,60.4,52.2,39.8,59.5,43.2,34.7,98,74,42,29.82,29.50,5,1,19,0.16
2012-10-17,65.6,47.8,31.9,42.2,36.5,30.6,96,70,30,29.94,29.82,2,0,7,0.00
2012-10-18,66.8,51.1,37.0,49.4,43.4,36.0,98,78,38,30.07,29.94,4,1,8,0.00
2012-10-19,65.2,57.2,47.9,64.7,55.6,46.8,99,95,71,30.03,29.67,6,1,18,0.40
2012-10-20,76.1,64.3,53.3,66.8,57.2,45.3,99,80,44,29.69,29.54,2,0,8,0.31
2012-10-21,66.0,53.7,42.2,46.6,42.0,38.4,94,68,39,29.82,29.67,4,1,14,0.00
2012-10-22,71.3,55.5,44.5,44.5,41.9,38.7,89,64,33,29.94,29.81,4,1,13,0.00
2012-10-23,67.3,52.8,43.3,47.3,43.0,40.3,90,72,41,30.05,29.94,3,0,10,0.00
2012-10-24,56.3,49.8,41.6,44.7,38.7,33.1,91,67,48,30.16,30.05,1,0,4,0.00
2012-10-25,66.4,52.1,40.2,45.7,39.1,29.5,96,67,25,30.25,30.16,3,0,8,0.00
2012-10-26,68.8,53.9,42.6,54.0,48.3,41.0,96,82,59,30.20,30.06,3,0,8,0.00
2012-10-27,68.6,54.6,45.1,54.7,49.9,44.3,99,85,59,30.07,29.94,4,0,7,0.00
2012-10-28,54.1,51.1,48.2,51.2,48.2,45.2,97,90,78,29.97,29.77,8,3,16,0.01
2012-10-29,62.1,55.3,48.2,60.7,54.6,47.4,99,97,93,29.77,29.15,24,12,40,0.08
2012-10-30,66.3,60.1,52.9,60.9,57.6,52.4,98,92,73,29.50,29.23,10,4,25,0.00
2012-10-31,56.5,51.8,46.5,53.9,48.4,42.2,99,89,68,29.50,29.40,4,1,10,0.00
2012-11-1,61.5,50.6,40.1,43.8,40.5,38.0,93,70,45,29.51,29.43,4,1,13,0.00
2012-11-2,56.0,47.4,42.6,42.1,38.4,33.8,92,72,51,29.55,29.47,4,1,11,0.00
2012-11-3,57.5,44.7,37.6,36.0,33.8,31.0,89,67,42,29.74,29.54,5,2,17,0.00
2012-11-4,58.3,44.3,35.3,36.5,32.1,27.5,85,64,41,29.89,29.73,5,2,14,0.00
2012-11-5,50.4,38.2,27.5,28.0,22.4,18.1,75,55,29,30.08,29.89,5,2,13,0.00
2012-11-6,47.3,33.3,22.9,21.6,17.8,12.2,85,57,28,30.18,30.07,4,0,10,0.00
2012-11-7,35.0,32.5,27.0,28.5,20.9,14.4,93,63,43,30.14,29.74,12,5,24,0.00
2012-11-8,37.6,34.5,30.1,35.9,32.9,28.6,96,94,81,29.73,29.60,7,4,19,0.00
2012-11-9,57.5,43.8,34.9,32.5,27.0,20.8,81,55,26,30.03,29.70,5,3,20,0.00
2012-11-10,59.0,43.4,32.5,35.9,29.0,25.0,90,60,30,30.40,30.02,4,1,12,0.00
2012-11-11,63.5,49.9,33.7,44.9,40.1,30.0,88,71,45,30.44,30.34,6,1,16,0.00
2012-11-12,70.1,57.4,46.7,57.6,49.7,43.0,95,77,46,30.39,30.15,7,2,21,0.00
2012-11-13,65.0,49.6,35.6,59.8,45.8,29.7,94,87,71,30.37,30.03,7,2,18,0.00
2012-11-14,50.8,38.7,30.9,29.4,25.4,21.1,83,61,33,30.50,30.37,7,2,14,0.00
2012-11-15,45.8,35.3,26.9,30.4,26.2,22.4,91,71,46,30.43,30.25,8,1,14,0.00
2012-11-16,51.3,36.5,30.0,30.5,27.6,24.3,92,72,43,30.38,30.23,2,0,8,0.00
2012-11-17,52.9,38.8,28.4,31.5,27.7,24.8,92,67,39,30.60,30.37,2,1,8,0.00
2012-11-18,47.1,33.9,24.7,31.6,26.5,22.4,93,76,49,30.68,30.57,5,1,10,0.00
2012-11-19,50.4,34.9,25.8,34.2,28.0,22.2,94,77,49,30.57,30.22,5,1,10,0.00
2012-11-20,52.5,36.9,25.6,32.2,27.7,23.6,94,72,43,30.22,30.08,4,0,7,0.00
2012-11-21,52.6,40.8,33.5,38.7,31.8,25.6,94,71,45,30.21,30.10,7,1,12,0.00
2012-11-22,57.3,43.6,35.2,40.5,36.0,32.0,96,76,48,30.22,30.06,3,0,7,0.00
2012-11-23,56.7,44.7,32.2,43.0,38.5,31.4,99,81,52,30.06,29.57,5,1,12,0.00
2012-11-24,49.8,41.0,30.9,43.8,26.0,14.3,93,57,31,29.57,29.45,8,3,19,0.00
2012-11-25,41.2,33.2,27.8,22.4,17.1,7.6,74,53,28,29.78,29.58,7,2,20,0.00
2012-11-26,50.5,36.3,27.9,26.3,22.2,18.7,80,59,31,30.17,29.78,6,1,17,0.00
2012-11-27,35.6,32.0,27.3,33.3,29.2,22.8,97,89,78,30.26,30.17,1,0,5,0.00
2012-11-28,39.5,32.0,26.9,31.9,26.0,21.5,97,79,54,30.17,30.05,3,1,10,0.00
2012-11-29,47.0,34.3,25.0,27.6,22.9,19.1,90,65,41,30.19,30.08,5,1,12,0.00
2012-11-30,38.2,30.9,27.2,26.8,8.4,-0.8,74,41,23,30.50,30.11,5,2,14,0.00
2012-12-1,28.7,27.4,26.0,26.1,18.5,4.5,93,72,35,30.59,30.45,2,1,6,0.00
2012-12-2,47.9,36.7,27.9,45.2,34.9,26.1,97,93,86,30.45,29.96,5,1,12,0.00
2012-12-3,61.8,48.0,36.5,48.2,41.4,34.4,98,80,47,30.23,29.94,5,1,18,0.00
2012-12-4,56.2,43.1,32.5,53.9,42.0,31.0,98,96,92,30.26,29.89,3,0,11,0.00
2012-12-5,57.8,48.9,30.7,54.0,37.7,14.1,94,67,44,30.07,29.75,7,3,24,0.00
2012-12-6,44.3,31.6,22.9,19.1,17.0,14.5,81,56,31,30.26,30.08,5,1,11,0.00
2012-12-7,42.1,33.4,21.4,38.7,28.4,17.2,97,82,66,30.23,29.96,3,0,10,0.01
2012-12-8,42.8,40.5,39.6,42.3,39.8,38.8,98,97,96,29.97,29.80,2,0,5,0.00
2012-12-9,45.5,40.1,36.8,42.3,34.9,29.1,98,83,54,30.23,29.88,3,0,8,0.00
2012-12-10,49.1,44.2,37.3,48.8,43.7,36.0,99,98,95,30.09,29.41,3,0,5,0.00
2012-12-11,52.3,41.5,29.4,50.2,34.6,22.1,99,78,50,30.07,29.44,5,1,12,0.00
2012-12-12,38.9,30.5,24.8,25.4,22.9,21.0,89,74,53,30.37,30.08,2,0,6,0.00
2012-12-13,47.9,31.0,22.5,28.9,23.8,20.7,95,77,44,30.42,30.22,2,0,7,0.00
2012-12-14,50.8,34.8,24.7,27.6,23.8,18.0,91,68,28,30.21,29.98,4,1,10,0.00
2012-12-15,44.6,33.5,27.5,27.2,21.6,14.2,87,64,32,30.28,30.09,4,1,12,0.00
2012-12-16,27.8,26.4,25.3,26.3,20.5,16.0,95,79,66,30.27,30.04,4,1,7,0.00
2012-12-17,33.1,29.8,25.4,32.6,28.6,23.7,98,95,93,30.04,29.77,3,1,8,0.00
2012-12-18,45.2,39.5,33.1,44.9,39.1,32.3,99,98,97,29.75,29.34,5,1,12,0.00
2012-12-19,47.6,40.3,34.6,39.1,32.7,28.5,98,75,54,29.96,29.37,7,3,21,0.00
2012-12-20,43.9,34.9,26.7,32.9,28.2,24.7,94,77,58,30.16,29.96,8,1,12,0.00
2012-12-21,51.6,42.1,34.0,50.5,39.3,32.6,98,90,75,29.98,28.99,18,6,33,0.00
2012-12-22,39.9,32.4,27.0,32.6,22.7,13.5,90,68,48,29.57,29.14,7,2,22,0.00
2012-12-23,43.6,30.4,24.1,24.2,18.0,12.9,79,61,37,29.79,29.57,6,1,25,0.00
2012-12-24,44.2,32.6,25.3,22.6,19.5,15.2,81,61,34,29.99,29.78,4,1,11,0.00
2012-12-25,33.4,29.2,24.2,27.3,21.8,15.5,86,74,62,30.16,29.92,3,1,11,0.00
2012-12-26,35.5,28.0,19.2,31.6,18.9,10.4,97,70,40,30.26,29.89,10,2,17,0.00
2012-12-27,39.2,33.3,30.6,38.7,32.0,26.6,98,95,85,29.86,29.23,11,5,22,0.00
2012-12-28,38.5,30.3,25.1,26.4,22.4,17.9,86,73,56,29.94,29.56,6,3,22,0.00
2012-12-29,30.4,27.7,23.0,28.8,24.0,20.8,96,86,71,29.94,29.36,4,1,7,0.00
2012-12-30,29.7,25.4,18.8,25.7,17.3,6.5,96,72,54,29.90,29.38,9,3,35,0.00
2012-12-31,33.8,25.7,16.4,24.5,17.3,7.3,80,70,60,29.97,29.69,6,1,17,0.00
2013-1-1,38.3,30.5,15.7,25.6,16.6,3.5,75,57,40,29.86,29.63,8,3,22,0.00